Find Starlink 5113

NORAD ID: 53988 Int'l Des: 2022-125 Owner: SPXS Country: US Constellation: starlink operational
LEOCIRCULAR

リアルタイム位置

3D地球を読み込み中...

Starlink 5113について

説明を読み込み中...

次回通過

Passes for default location (London). Set your location on the main map for personalized predictions.

高度履歴

Loading altitude history...

軌道要素

1 53988U 22125AA 26105.93473724 .00000999 00000-0 80937-4 0 9996
2 53988 53.2180 47.0373 0001769 93.5929 266.5265 15.08811804195078
Epoch: Apr 15, 2026 • Age: 9 hours

現在のステータス

高度 543.8 km
速度 7.59 km/s
衛星直下点 -13.92°S, 77.25°W
打ち上げ日 Oct 5, 2022
運用期間 3.5 years
タイプ internet

技術仕様

分類 Payload
質量 305.00 kg
乾燥質量 290.00 kg
総質量 305.00 kg
長さ 0.20 m
直径 2.80 m
スパン 9.00 m
形状 Box + pan
製造者 SPXS
バスタイプ Starlink
フェーズステータス In Orbit
所有者/国 SPXS/US

Most Searched